Location: Nantong Television Tower
(32.0188°N, 120.8512°E)
Time: 21:44:05
(UTC+08:00)

Vanguard 3 - Visible Passes

Search period start: 11 December 2016 00:00
Search period end: 21 December 2016 00:00
Orbit: 507 x 3267 km, 33.4° (Epoch: 11 December)

Date Brightness Start Highest point End Pass type
(mag) Time Alt. Az. Time Alt. Az. Time Alt. Az.
11 Dec 10.7 01:24:38 25° E 01:24:38 25° E 01:31:30 10° ENE visible
11 Dec 9.3 03:29:15 71° SW 03:31:20 79° SSE 03:50:40 10° ENE visible
11 Dec 10.0 05:33:52 16° W 05:48:25 86° N 06:08:49 10° E visible
12 Dec 9.9 02:19:59 50° E 02:19:59 50° E 02:32:59 10° ENE visible
12 Dec 9.6 04:24:35 43° W 04:31:27 88° N 04:51:40 10° E visible
13 Dec 10.8 01:10:39 20° E 01:10:39 20° E 01:15:03 10° ENE visible
13 Dec 9.2 03:15:16 83° SSE 03:15:16 83° SSE 03:34:04 10° ENE visible
13 Dec 9.9 05:19:52 22° W 05:32:06 86° N 05:52:34 10° E visible
14 Dec 10.1 02:05:54 41° E 02:05:54 41° E 02:16:20 10° ENE visible
14 Dec 9.3 04:10:29 54° W 04:15:20 86° N 04:35:12 10° E visible
14 Dec 10.2 06:16:06 10° W 06:32:50 86° SSW 06:53:01 10° ESE visible
15 Dec 11.0 00:56:29 15° E 00:56:29 15° E 00:58:36 10° ENE visible
15 Dec 9.3 03:01:05 75° E 03:01:05 75° E 03:17:26 10° E visible
15 Dec 9.8 05:05:42 28° W 05:15:51 87° N 05:36:13 10° E visible
16 Dec 10.3 01:51:39 33° E 01:51:39 33° E 01:59:42 10° ENE visible
16 Dec 9.2 03:56:15 65° W 03:59:18 85° N 04:18:39 10° E visible
16 Dec 10.1 06:00:51 11° WNW 06:16:24 83° SSW 06:36:41 10° ESE visible
17 Dec 9.5 02:46:48 62° E 02:46:48 62° E 03:00:48 10° E visible
17 Dec 9.6 04:51:24 35° W 04:59:39 89° N 05:19:46 10° ESE visible
18 Dec 10.5 01:37:21 26° E 01:37:21 26° E 01:43:06 10° ENE visible
18 Dec 9.1 03:41:56 76° WNW 03:43:23 85° N 04:02:05 10° E visible
18 Dec 10.0 05:46:32 15° WNW 05:59:59 79° SSW 06:20:14 10° ESE visible
19 Dec 9.7 02:32:29 50° E 02:32:29 50° E 02:44:11 10° E visible
19 Dec 9.4 04:37:04 42° W 04:43:31 89° S 05:03:12 10° ESE visible
20 Dec 10.8 01:23:01 19° ENE 01:23:01 19° ENE 01:26:34 10° ENE visible
20 Dec 9.0 03:27:36 85° NNE 03:27:36 85° NNE 03:45:29 10° E visible
20 Dec 9.9 05:32:13 20° W 05:43:38 74° SSW 06:03:35 10° ESE visible
